WD9U Weather Reports


time (UTC)temp
C
wind
direction
speed
KPH
gust
KPH
rain 1hr
cm
rain 24hr
cm
rain mn
cm
humidity
%
barometer
mb
20260510142513 6 309 4.8 11.3 0.00 0.00 0.00 59 1019.6
20260510141913 6 299 0.0 9.7 0.00 0.00 0.00 61 1019.6
20260510141313 6 328 8.0 11.3 0.00 0.00 0.00 60 1019.5
20260510140713 6 278 1.6 3.2 0.00 0.00 0.00 61 1019.4
20260510140516 6 269 3.2 9.7 0.00 0.00 0.00 60 1019.4
20260510140113 6 330 3.2 11.3 0.00 0.00 0.00 59 1019.3
20260510135513 6 304 4.8 9.7 0.00 0.00 0.00 60 1019.3
20260510134913 6 324 6.4 16.1 0.00 0.00 0.00 58 1019.3
20260510134516 6 326 6.4 14.5 0.00 0.00 0.00 58 1019.1
20260510134313 6 297 6.4 14.5 0.00 0.00 0.00 57 1019.1
20260510133713 6 341 4.8 11.3 0.00 0.00 0.00 58 1019.1
20260510133113 6 297 4.8 16.1 0.00 0.00 0.00 60 1019.2
20260510132513 6 334 6.4 14.5 0.00 0.00 0.00 59 1019.1
20260510131913 6 297 4.8 12.9 0.00 0.00 0.00 61 1019.0
20260510131313 6 330 4.8 11.3 0.00 0.00 0.00 61 1018.9
20260510130713 6 332 8.0 14.5 0.00 0.00 0.00 61 1018.9
20260510130515 5 320 6.4 12.9 0.00 0.00 0.00 62 1018.8
20260510130113 5 315 3.2 11.3 0.00 0.00 0.00 63 1018.9
20260510125513 5 341 6.4 14.5 0.00 0.00 0.00 63 1018.9
20260510124913 5 309 1.6 4.8 0.00 0.00 0.00 63 1018.7
20260510124515 5 327 0.0 3.2 0.00 0.00 0.00 63 1018.7
20260510124313 5 314 1.6 4.8 0.00 0.00 0.00 63 1018.8
20260510123713 5 311 1.6 4.8 0.00 0.00 0.00 62 1018.6
20260510123113 5 334 0.0 3.2 0.00 0.00 0.00 63 1018.6
20260510122513 5 315 6.4 14.5 0.00 0.00 0.00 64 1018.5
20260510121913 5 344 1.6 6.4 0.00 0.00 0.00 63 1018.3
20260510121313 5 321 0.0 1.6 0.00 0.00 0.00 65 1018.1
20260510120713 4 332 1.6 4.8 0.00 0.00 0.00 65 1018.1
20260510120515 4 314 3.2 6.4 0.00 0.00 0.00 66 1018.1
20260510120113 4 319 3.2 11.3 0.00 0.00 0.00 67 1018.1
20260510115512 3 331 1.6 3.2 0.00 0.00 0.00 68 1018.0
20260510114911 3 336 0.0 1.6 0.00 0.00 0.00 71 1017.9
20260510114513 3 316 0.0 1.6 0.00 0.00 0.00 71 1017.7
20260510114311 2 0 0.0 0.0 0.00 0.00 0.00 71 1017.8
20260510113711 2 0 0.0 0.0 0.00 0.00 0.00 71 1017.6
20260510113111 2 0 0.0 0.0 0.00 0.00 0.00 71 1017.5
20260510112511 2 0 0.0 0.0 0.00 0.00 0.00 71 1017.6
20260510111911 2 0 0.0 0.0 0.00 0.00 0.00 71 1017.5
20260510111311 1 0 0.0 0.0 0.00 0.00 0.00 72 1017.4
20260510110711 1 0 0.0 0.0 0.00 0.00 0.00 72 1017.3
20260510110513 1 0 0.0 0.0 0.00 0.00 0.00 71 1017.3
20260510110110 1 0 0.0 0.0 0.00 0.00 0.00 71 1017.2
20260510105509 1 0 0.0 0.0 0.00 0.00 0.00 71 1017.1
20260510104909 1 0 0.0 0.0 0.00 0.00 0.00 72 1017.0
20260510104511 1 0 0.0 0.0 0.00 0.00 0.00 71 1016.9
20260510104309 1 0 0.0 0.0 0.00 0.00 0.00 71 1017.0
20260510103709 1 0 0.0 0.0 0.00 0.00 0.00 71 1016.8
20260510103109 1 0 0.0 0.0 0.00 0.00 0.00 71 1016.8
20260510102509 1 0 0.0 0.0 0.00 0.00 0.00 70 1016.6
20260510101909 1 0 0.0 0.0 0.00 0.00 0.00 69 1016.5
20260510101309 1 0 0.0 0.0 0.00 0.00 0.00 69 1016.4
20260510100709 1 0 0.0 0.0 0.00 0.00 0.00 68 1016.3
20260510100511 1 0 0.0 0.0 0.00 0.00 0.00 68 1016.3
20260510100108 1 0 0.0 0.0 0.00 0.00 0.00 68 1016.2
20260510095507 1 0 0.0 0.0 0.00 0.00 0.00 68 1016.2
20260510094907 2 0 0.0 0.0 0.00 0.00 0.00 68 1016.2
20260510094519 2 0 0.0 0.0 0.00 0.00 0.00 67 1016.1
20260510094317 2 0 0.0 0.0 0.00 0.00 0.00 67 1016.1
20260510093707 2 0 0.0 0.0 0.00 0.00 0.00 66 1016.1
20260510093117 2 0 0.0 0.0 0.00 0.00 0.00 66 1016.0
20260510092517 2 0 0.0 0.0 0.00 0.00 0.00 65 1015.9
20260510091917 2 0 0.0 0.0 0.00 0.00 0.00 64 1015.8
20260510091316 2 0 0.0 0.0 0.00 0.00 0.00 63 1015.8
20260510090716 2 0 0.0 0.0 0.00 0.00 0.00 63 1015.7
20260510090518 2 0 0.0 0.0 0.00 0.00 0.00 63 1015.7
20260510090116 2 0 0.0 0.0 0.00 0.00 0.00 63 1015.7
20260510085516 2 0 0.0 0.0 0.00 0.00 0.00 63 1015.5
20260510084916 2 0 0.0 0.0 0.00 0.00 0.00 63 1015.4
20260510084518 2 0 0.0 0.0 0.00 0.00 0.00 62 1015.5
20260510084316 2 0 0.0 0.0 0.00 0.00 0.00 62 1015.4
20260510083716 2 0 0.0 0.0 0.00 0.00 0.00 62 1015.5
20260510083116 2 0 0.0 0.0 0.00 0.00 0.00 63 1015.4
20260510082516 2 0 0.0 0.0 0.00 0.00 0.00 63 1015.4
20260510081916 2 0 0.0 0.0 0.00 0.00 0.00 64 1015.3
20260510081316 2 0 0.0 0.0 0.00 0.00 0.00 63 1015.3
20260510080716 2 0 0.0 0.0 0.00 0.00 0.00 64 1015.3
20260510080518 2 0 0.0 0.0 0.00 0.00 0.00 64 1015.3
20260510080116 2 0 0.0 0.0 0.00 0.00 0.00 64 1015.3
20260510075516 2 0 0.0 0.0 0.00 0.00 0.00 64 1015.1
20260510074916 3 0 0.0 0.0 0.00 0.00 0.00 63 1015.1
20260510074518 3 0 0.0 0.0 0.00 0.00 0.00 62 1015.1
20260510074316 3 0 0.0 0.0 0.00 0.00 0.00 63 1015.1
20260510073715 3 0 0.0 0.0 0.00 0.00 0.00 62 1015.1
20260510073116 3 0 0.0 0.0 0.00 0.00 0.00 61 1015.1
20260510072515 3 0 0.0 0.0 0.00 0.00 0.00 61 1015.0
20260510071916 3 0 0.0 0.0 0.00 0.00 0.00 60 1015.0
20260510071315 3 0 0.0 0.0 0.00 0.00 0.00 60 1015.1
20260510070715 3 0 0.0 0.0 0.00 0.00 0.00 59 1014.9
20260510070518 3 0 0.0 0.0 0.00 0.00 0.00 59 1014.9
20260510070115 4 0 0.0 0.0 0.00 0.00 0.00 58 1015.0
20260510065515 4 0 0.0 0.0 0.00 0.00 0.00 58 1014.9
20260510064915 4 0 0.0 0.0 0.00 0.00 0.00 56 1014.9
20260510064518 4 0 0.0 0.0 0.00 0.00 0.00 56 1014.9
20260510064315 4 0 0.0 0.0 0.00 0.00 0.00 55 1014.9
20260510063714 4 0 0.0 0.0 0.00 0.00 0.00 55 1014.9
20260510063113 3 0 0.0 0.0 0.00 0.00 0.00 55 1014.8
20260510062513 3 0 0.0 0.0 0.00 0.00 0.00 54 1014.8
20260510061913 3 0 0.0 0.0 0.00 0.00 0.00 53 1014.8
20260510061313 3 0 0.0 0.0 0.00 0.00 0.00 53 1014.7
20260510060713 3 0 0.0 0.0 0.00 0.00 0.00 53 1014.7
20260510060516 3 0 0.0 0.0 0.00 0.00 0.00 53 1014.7
20260510060113 3 0 0.0 0.0 0.00 0.00 0.00 53 1014.7
20260510055513 3 0 0.0 0.0 0.00 0.00 0.00 54 1014.7
20260510054913 3 0 0.0 0.0 0.00 0.00 0.00 54 1014.7
20260510054516 3 0 0.0 0.0 0.00 0.00 0.00 55 1014.6
20260510054313 3 0 0.0 0.0 0.00 0.00 0.00 55 1014.6
20260510053713 3 0 0.0 0.0 0.00 0.00 0.00 54 1014.6
20260510053113 3 0 0.0 0.0 0.00 0.00 0.00 54 1014.6
20260510052513 3 0 0.0 0.0 0.00 0.00 0.00 55 1014.5
20260510051913 3 0 0.0 0.0 0.00 0.00 0.00 55 1014.6
20260510051313 3 0 0.0 0.0 0.00 0.00 0.00 55 1014.5
20260510050713 3 0 0.0 0.0 0.00 0.00 0.00 56 1014.6
20260510050516 3 0 0.0 0.0 0.00 0.00 0.00 56 1014.5
20260510050113 3 0 0.0 0.0 0.00 0.00 0.00 55 1014.5
20260510045513 3 0 0.0 0.0 0.00 0.00 0.00 55 1014.5
20260510044913 3 0 0.0 0.0 0.00 0.00 0.00 56 1014.5
20260510044516 3 0 0.0 0.0 0.00 0.00 0.00 56 1014.5
20260510044313 3 0 0.0 0.0 0.00 0.00 0.00 56 1014.5
20260510043713 3 0 0.0 0.0 0.00 0.00 0.00 56 1014.5
20260510043113 3 0 0.0 0.0 0.00 0.00 0.00 55 1014.6
20260510042513 3 0 0.0 0.0 0.00 0.00 0.00 55 1014.5
20260510041913 3 0 0.0 0.0 0.00 0.00 0.00 55 1014.5
20260510041313 3 0 0.0 0.0 0.00 0.00 0.00 54 1014.5
20260510040713 3 0 0.0 0.0 0.00 0.00 0.00 54 1014.4
20260510040515 3 0 0.0 0.0 0.00 0.00 0.00 55 1014.4
20260510040113 3 0 0.0 0.0 0.00 0.00 0.00 54 1014.3
20260510035513 4 0 0.0 0.0 0.00 0.00 0.00 54 1014.4
20260510034913 4 0 0.0 0.0 0.00 0.00 0.00 53 1014.2
20260510034516 4 0 0.0 0.0 0.00 0.00 0.00 51 1014.2
20260510034313 5 0 0.0 0.0 0.00 0.00 0.00 50 1014.3
20260510033713 5 0 0.0 0.0 0.00 0.00 0.00 50 1014.2
20260510033113 5 0 0.0 0.0 0.00 0.00 0.00 51 1014.1
20260510032513 5 0 0.0 0.0 0.00 0.00 0.00 50 1014.0
20260510031913 6 0 0.0 0.0 0.00 0.00 0.00 49 1014.0
20260510031313 6 0 0.0 0.0 0.00 0.00 0.00 47 1014.0
20260510030712 6 0 0.0 0.0 0.00 0.00 0.00 46 1013.9
20260510030515 6 0 0.0 0.0 0.00 0.00 0.00 46 1014.0
20260510030112 6 0 0.0 0.0 0.00 0.00 0.00 46 1013.9
20260510025512 7 0 0.0 0.0 0.00 0.00 0.00 46 1013.8
20260510024912 7 0 0.0 0.0 0.00 0.00 0.00 45 1013.7
20260510024516 7 0 0.0 0.0 0.00 0.00 0.00 45 1013.8
20260510024312 7 0 0.0 0.0 0.00 0.00 0.00 44 1013.6
20260510023712 7 0 0.0 0.0 0.00 0.00 0.00 43 1013.6
20260510023112 7 0 0.0 0.0 0.00 0.00 0.00 43 1013.5
20260510022512 7 0 0.0 0.0 0.00 0.00 0.00 44 1013.5
20260510021912 7 0 0.0 0.0 0.00 0.00 0.00 45 1013.4
20260510021312 8 0 0.0 0.0 0.00 0.00 0.00 46 1013.3
20260510020712 8 0 0.0 0.0 0.00 0.00 0.00 44 1013.3
20260510020514 8 0 0.0 0.0 0.00 0.00 0.00 44 1013.2
20260510020112 8 0 0.0 0.0 0.00 0.00 0.00 43 1013.2
20260510015512 8 0 0.0 0.0 0.00 0.00 0.00 42 1013.1
20260510014912 8 329 0.0 1.6 0.00 0.00 0.00 41 1013.1
20260510014514 8 340 0.0 1.6 0.00 0.00 0.00 39 1013.0
20260510014312 8 329 1.6 9.7 0.00 0.00 0.00 39 1012.9
20260510013712 8 331 8.0 11.3 0.00 0.00 0.00 39 1012.9
20260510013111 9 328 1.6 8.0 0.00 0.00 0.00 40 1012.8
20260510012511 9 332 4.8 14.5 0.00 0.00 0.00 39 1012.7
20260510011911 9 339 6.4 9.7 0.00 0.00 0.00 39 1012.6
20260510011311 9 313 1.6 6.4 0.00 0.00 0.00 41 1012.5
20260510010711 9 323 0.0 1.6 0.00 0.00 0.00 40 1012.3
20260510010513 9 318 1.6 3.2 0.00 0.00 0.00 40 1012.3
20260510010111 9 332 1.6 4.8 0.00 0.00 0.00 39 1012.2
20260510005511 9 321 0.0 1.6 0.00 0.00 0.00 38 1012.1
20260510004911 9 340 1.6 4.8 0.00 0.00 0.00 37 1012.0
20260510004513 9 334 0.0 1.6 0.00 0.00 0.00 37 1012.0
20260510004310 9 349 1.6 3.2 0.00 0.00 0.00 36 1012.0
20260510003710 9 338 0.0 3.2 0.00 0.00 0.00 36 1012.0
20260510003111 9 322 0.0 1.6 0.00 0.00 0.00 35 1012.0
20260510002511 9 0 0.0 0.0 0.00 0.00 0.00 35 1011.9
20260510001910 9 0 0.0 0.0 0.00 0.00 0.00 36 1011.9
20260510001310 9 0 0.0 0.0 0.00 0.00 0.00 36 1011.7
20260510000710 9 0 0.0 0.0 0.00 0.00 0.00 36 1011.8
20260510000513 9 0 0.0 0.0 0.00 0.00 0.00 36 1011.7
20260510000110 9 0 0.0 0.0 0.00 0.00 0.00 36 1011.8
20260509235510 9 0 0.0 0.0 0.00 0.00 0.00 36 1011.6
20260509234910 9 0 0.0 0.0 0.00 0.00 0.00 35 1011.5
20260509234513 9 0 0.0 0.0 0.00 0.00 0.00 35 1011.5
20260509234310 10 0 0.0 0.0 0.00 0.00 0.00 36 1011.5
20260509233710 10 0 0.0 0.0 0.00 0.00 0.00 35 1011.4
20260509233110 10 0 0.0 0.0 0.00 0.00 0.00 35 1011.2
20260509232510 10 0 0.0 0.0 0.00 0.00 0.00 36 1011.1
20260509231910 10 32 0.0 1.6 0.00 0.00 0.00 35 1011.2
20260509231310 10 41 0.0 1.6 0.00 0.00 0.00 36 1011.1
20260509230709 10 6 0.0 1.6 0.00 0.00 0.00 34 1011.1
20260509230512 10 48 0.0 1.6 0.00 0.00 0.00 35 1011.0
20260509230108 10 42 0.0 1.6 0.00 0.00 0.00 35 1010.9
20260509225508 10 57 0.0 1.6 0.00 0.00 0.00 34 1010.7
20260509224908 10 70 0.0 1.6 0.00 0.00 0.00 34 1010.8
20260509224511 10 32 1.6 3.2 0.00 0.00 0.00 34 1010.8
20260509224308 10 27 0.0 3.2 0.00 0.00 0.00 34 1010.8
20260509223708 10 62 1.6 8.0 0.00 0.00 0.00 34 1010.8
20260509223108 10 74 1.6 3.2 0.00 0.00 0.00 35 1010.8
20260509222508 10 57 0.0 1.6 0.00 0.00 0.00 36 1010.7
20260509221908 10 288 0.0 1.6 0.00 0.00 0.00 35 1010.7
20260509221308 10 19 0.0 1.6 0.00 0.00 0.00 35 1010.6
20260509220708 11 3 0.0 1.6 0.00 0.00 0.00 33 1010.7
20260509220511 11 42 1.6 1.6 0.00 0.00 0.00 34 1010.6
20260509220108 10 52 0.0 1.6 0.00 0.00 0.00 35 1010.5
20260509215508 10 341 4.8 11.3 0.00 0.00 0.00 33 1010.6
20260509214908 10 336 1.6 9.7 0.00 0.00 0.00 34 1010.4
20260509214511 10 344 8.0 12.9 0.00 0.00 0.00 35 1010.6
20260509214308 10 344 6.4 11.3 0.00 0.00 0.00 33 1010.5
20260509213707 10 353 6.4 11.3 0.00 0.00 0.00 34 1010.5
20260509213116 10 353 6.4 12.9 0.00 0.00 0.00 34 1010.5
20260509212516 10 347 1.6 8.0 0.00 0.00 0.00 33 1010.5
20260509211916 10 350 8.0 16.1 0.00 0.00 0.00 34 1010.5
20260509211316 10 343 6.4 14.5 0.00 0.00 0.00 34 1010.4
20260509210716 10 331 9.7 19.3 0.00 0.00 0.00 34 1010.5
20260509210519 10 336 8.0 16.1 0.00 0.00 0.00 36 1010.4
20260509210116 10 348 9.7 12.9 0.00 0.00 0.00 35 1010.4
20260509205516 10 360 11.3 16.1 0.00 0.00 0.00 34 1010.3
20260509204916 10 332 6.4 9.7 0.00 0.00 0.00 36 1010.3
20260509204519 10 350 8.0 16.1 0.00 0.00 0.00 35 1010.2
20260509204316 10 335 8.0 16.1 0.00 0.00 0.00 33 1010.2
20260509203715 10 336 8.0 11.3 0.00 0.00 0.00 33 1010.2
20260509203115 10 354 6.4 14.5 0.00 0.00 0.00 32 1010.1
20260509202515 10 328 3.2 11.3 0.00 0.00 0.00 32 1010.2
20260509201915 11 338 11.3 17.7 0.00 0.00 0.00 33 1010.0
20260509201315 11 345 11.3 17.7 0.00 0.00 0.00 33 1010.0
20260509200715 10 313 9.7 17.7 0.00 0.00 0.00 33 1009.9
20260509200517 10 341 8.0 12.9 0.00 0.00 0.00 30 1009.9
20260509200115 10 302 9.7 12.9 0.00 0.00 0.00 32 1009.8
20260509195515 10 323 11.3 22.5 0.00 0.00 0.00 35 1009.7
20260509194915 10 314 9.7 17.7 0.00 0.00 0.00 34 1009.7
20260509194517 10 321 11.3 16.1 0.00 0.00 0.00 33 1009.8
20260509194315 10 336 12.9 17.7 0.00 0.00 0.00 33 1009.6
20260509193715 10 343 8.0 14.5 0.00 0.00 0.00 34 1009.6
20260509193115 10 342 11.3 16.1 0.00 0.00 0.00 35 1009.5
20260509192514 10 330 9.7 12.9 0.00 0.00 0.00 34 1009.5
20260509191914 10 330 14.5 19.3 0.00 0.00 0.00 33 1009.6
20260509191314 10 338 11.3 25.7 0.00 0.00 0.00 34 1009.5
20260509190714 10 316 8.0 14.5 0.00 0.00 0.00 33 1009.4
20260509190516 10 313 9.7 16.1 0.00 0.00 0.00 33 1009.4
20260509190114 10 320 9.7 16.1 0.00 0.00 0.00 34 1009.4
20260509185514 10 302 11.3 24.1 0.00 0.00 0.00 38 1009.2
20260509184914 10 321 12.9 22.5 0.00 0.00 0.00 36 1009.1
20260509184516 10 329 8.0 16.1 0.00 0.00 0.00 37 1009.0
20260509184314 10 319 11.3 19.3 0.00 0.00 0.00 37 1009.2
20260509183714 10 331 8.0 12.9 0.00 0.00 0.00 35 1009.1
20260509183113 10 338 11.3 20.9 0.00 0.00 0.00 37 1008.9
20260509182512 10 342 12.9 19.3 0.00 0.00 0.00 36 1008.7
20260509181912 10 318 11.3 17.7 0.00 0.00 0.00 36 1008.7
20260509181312 10 326 9.7 19.3 0.00 0.00 0.00 36 1008.5
20260509180712 10 310 9.7 12.9 0.00 0.00 0.00 35 1008.3
20260509180515 10 311 11.3 19.3 0.00 0.00 0.00 35 1008.3
20260509180112 10 325 12.9 22.5 0.00 0.00 0.00 34 1008.2
20260509175512 10 338 14.5 27.4 0.00 0.00 0.00 33 1007.9
20260509174912 11 318 11.3 19.3 0.00 0.00 0.00 36 1007.9
20260509174515 11 311 8.0 17.7 0.00 0.00 0.00 34 1007.8
20260509174311 11 292 3.2 14.5 0.00 0.00 0.00 34 1007.8
20260509173711 11 333 12.9 20.9 0.00 0.00 0.00 35 1007.8
20260509173111 11 311 14.5 22.5 0.00 0.00 0.00 34 1007.6
20260509172511 11 319 9.7 14.5 0.00 0.00 0.00 35 1007.5
20260509171911 11 331 8.0 16.1 0.00 0.00 0.00 37 1007.6
20260509171311 10 330 9.7 17.7 0.00 0.00 0.00 37 1007.3
20260509170711 10 320 6.4 17.7 0.00 0.00 0.00 36 1007.4
20260509170514 10 322 8.0 16.1 0.00 0.00 0.00 36 1007.3
20260509170111 10 305 6.4 12.9 0.00 0.00 0.00 38 1007.2
20260509165511 10 318 14.5 25.7 0.00 0.00 0.00 39 1007.3
20260509164911 10 332 11.3 20.9 0.00 0.00 0.00 37 1007.1
20260509164514 10 315 12.9 19.3 0.00 0.00 0.00 38 1007.2
20260509164311 10 322 11.3 25.7 0.00 0.00 0.00 39 1007.1
20260509163711 10 326 11.3 16.1 0.00 0.00 0.00 39 1007.0
20260509163111 10 329 11.3 20.9 0.00 0.00 0.00 41 1006.9
20260509162511 10 345 9.7 16.1 0.00 0.00 0.00 39 1006.9
20260509161911 10 315 9.7 14.5 0.00 0.00 0.00 40 1006.9
20260509161311 10 334 6.4 11.3 0.00 0.00 0.00 38 1006.8
20260509160710 10 326 6.4 14.5 0.00 0.00 0.00 38 1006.7
20260509160513 10 317 11.3 19.3 0.00 0.00 0.00 40 1006.6
20260509160110 10 331 9.7 14.5 0.00 0.00 0.00 39 1006.6
20260509155510 10 318 6.4 14.5 0.00 0.00 0.00 37 1006.4
20260509154909 10 345 14.5 17.7 0.00 0.00 0.00 36 1006.3
20260509154511 10 332 11.3 16.1 0.00 0.00 0.00 36 1006.2
20260509154309 10 304 11.3 20.9 0.00 0.00 0.00 36 1006.1
20260509153709 10 305 8.0 16.1 0.00 0.00 0.00 35 1006.1
20260509153109 10 336 6.4 14.5 0.00 0.00 0.00 36 1006.1
20260509152509 10 337 14.5 19.3 0.00 0.00 0.00 36 1005.9
20260509151909 10 331 14.5 24.1 0.00 0.00 0.00 38 1005.9
20260509151309 10 318 11.3 19.3 0.00 0.00 0.00 37 1005.7
20260509150707 10 314 4.8 17.7 0.00 0.00 0.00 36 1005.6
20260509150519 10 332 8.0 14.5 0.00 0.00 0.00 36 1005.7
20260509150107 10 313 11.3 20.9 0.00 0.00 0.00 33 1005.6
20260509145507 10 316 9.7 16.1 0.00 0.00 0.00 33 1005.4
20260509144907 10 312 8.0 19.3 0.00 0.00 0.00 33 1005.3
20260509144519 10 339 14.5 29.0 0.00 0.00 0.00 33 1005.3
20260509144307 10 324 8.0 19.3 0.00 0.00 0.00 33 1005.3
20260509143707 10 309 17.7 22.5 0.00 0.00 0.00 31 1005.1
20260509143116 10 314 12.9 24.1 0.00 0.00 0.00 33 1005.1